Weather History for Monroe, NC

Change the Weather History Date:

Tuesday, February 26, 2013

  Actual Average (KCLT) Record (KCLT)
Temperature  
Mean Temperature 42 °F 46 °F  
Max Temperature 50 °F 58 °F 81 °F (1977)
Min Temperature 33 °F 35 °F 7 °F (1967)
Degree Days  
Heating Degree Days 24 19  
Month to date heating degree days 556  
Since 1 July heating degree days 2663  
Cooling Degree Days 0 0  
Month to date cooling degree days 0  
Year to date cooling degree days 0  
Moisture  
Dew Point 40 °F    
Average Humidity 94    
Maximum Humidity 100    
Minimum Humidity 62    
Precipitation  
Precipitation 0.29 in 0.12 in 1.82 in (1890)
Month to date precipitation 3.06  
Year to date precipitation 6.47  
Snow  
Snow 0.00 in 0.00 in 11.60 in (2004)
Month to date snowfall 1.1  
Since 1 July snowfall 3.6  
Snow Depth -    
Sea Level Pressure  
Sea Level Pressure 29.76 in    
Wind  
Wind Speed 10 mph (North)    
Max Wind Speed 17 mph    
Max Gust Speed 22 mph    
Visibility 4 miles    
Events Rain    
T = Trace of Precipitation, MM = Missing Value Source: NWS Daily Summary

Daily Weather History Graph

Daily Weather History Graph

Search for Another Location

Airport:

Trip Planner

Search our weather history database for the weather conditions in past years. The results will help you decide how hot, cold, wet, or windy it might be!

Date:

Astronomy

Feb. 26, 2013 Rise Set
Actual Time 6:55 AM EST 6:15 PM EST
Civil Twilight 6:29 AM EST 6:41 PM EST
Nautical Twilight 6:00 AM EST 7:10 PM EST
Astronomical Twilight 5:31 AM EST 7:39 PM EST
Moon 7:25 PM EST (2/26) 7:01 AM EST (2/26)
Length of Visible Light 12h 11m
Length of Day
11h 20m
Full, 99% of the Moon is Illuminated
Feb 26
Full
Mar 4
Last Quarter
Mar 11
New
Mar 19
First Quarter
Mar 27
Full

Hourly Weather History & Observations

Time (EST) Temp. Windchill Dew Point Humidity Pressure Visibility Wind Dir Wind Speed Gust Speed Precip Events Conditions
12:29 AM 37.4 °F 29.8 °F 26.6 °F 65% 30.05 in 10.0 mi NE 11.5 mph - 0.00 in   Overcast
12:53 AM 37.9 °F 29.6 °F 26.1 °F 62% 30.10 in 10.0 mi NE 13.8 mph - 0.00 in   Overcast
1:18 AM 37.4 °F 28.2 °F 26.6 °F 65% 30.03 in 10.0 mi NE 16.1 mph 19.6 mph N/A   Overcast
1:53 AM 37.9 °F 30.0 °F 26.1 °F 62% 30.08 in 10.0 mi NE 12.7 mph 17.3 mph N/A   Overcast
2:53 AM 36.0 °F 29.0 °F 28.9 °F 76% 30.04 in 10.0 mi ENE 9.2 mph 16.1 mph 0.00 in Rain Light Rain
3:53 AM 35.1 °F 27.9 °F 32.0 °F 89% 30.00 in 5.0 mi ENE 9.2 mph 18.4 mph 0.00 in Rain Light Rain
4:14 AM 35.6 °F 26.6 °F 32.0 °F 87% 29.94 in 3.0 mi NE 13.8 mph 20.7 mph 0.00 in Rain Light Rain
4:28 AM 33.8 °F 25.8 °F 33.8 °F 100% 29.93 in 3.0 mi ENE 10.4 mph 19.6 mph 0.00 in Rain Light Rain
4:37 AM 33.8 °F 24.8 °F 33.8 °F 100% 29.92 in 3.0 mi ENE 12.7 mph 18.4 mph 0.02 in Rain Heavy Rain
4:53 AM 34.0 °F 26.6 °F 33.1 °F 96% 29.98 in 3.0 mi ENE 9.2 mph 19.6 mph 0.03 in Rain Rain
5:53 AM 35.1 °F 27.4 °F 33.1 °F 92% 30.00 in 4.0 mi NE 10.4 mph - 0.05 in Rain Rain
6:53 AM 35.1 °F 25.2 °F 33.1 °F 92% 29.95 in 6.0 mi NE 16.1 mph - 0.02 in Rain Rain
7:53 AM 35.1 °F 25.9 °F 34.0 °F 96% 29.93 in 4.0 mi NE 13.8 mph - 0.04 in Rain Rain
8:03 AM 35.6 °F 28.0 °F 33.8 °F 93% 29.87 in 2.5 mi ENE 10.4 mph 20.7 mph 0.01 in Rain Rain
8:11 AM 35.6 °F 25.5 °F 33.8 °F 93% 29.85 in 3.0 mi NE 17.3 mph 21.9 mph 0.03 in Rain Rain
8:53 AM 36.0 °F 26.3 °F 35.1 °F 97% 29.88 in 2.5 mi ENE 16.1 mph 21.9 mph 0.09 in Rain Heavy Rain
9:12 AM 35.6 °F 27.5 °F 35.6 °F 100% 29.82 in 5.0 mi ENE 11.5 mph 19.6 mph 0.03 in Rain Light Rain
9:41 AM 37.4 °F 30.3 °F 35.6 °F 93% 29.81 in 5.0 mi ENE 10.4 mph 18.4 mph 0.03 in Rain Light Rain
9:53 AM 37.9 °F 32.1 °F 37.0 °F 97% 29.84 in 3.0 mi ENE 8.1 mph - 0.05 in Rain Light Rain
10:53 AM 39.0 °F 33.4 °F 37.9 °F 96% 29.81 in 6.0 mi ENE 8.1 mph - N/A Rain Light Rain
11:53 AM 41.0 °F 35.8 °F 39.9 °F 96% 29.75 in 8.0 mi ENE 8.1 mph - N/A   Overcast
12:04 PM 41.0 °F 35.2 °F 41.0 °F 100% 29.69 in 6.0 mi ENE 9.2 mph - 0.00 in Rain Light Rain
12:53 PM 43.0 °F 37.7 °F 43.0 °F 100% 29.68 in 2.5 mi ENE 9.2 mph - 0.00 in   Overcast
1:23 PM 44.6 °F 40.7 °F 44.6 °F 100% 29.60 in 1.5 mi ENE 6.9 mph - 0.00 in Rain Light Rain
1:53 PM 46.0 °F 43.9 °F 45.0 °F 96% 29.64 in 1.5 mi NE 4.6 mph - 0.00 in   Overcast
2:22 PM 46.4 °F 45.2 °F 46.4 °F 100% 29.59 in 2.0 mi Variable 3.5 mph - 0.01 in Rain Light Rain
2:32 PM 46.4 °F - 46.4 °F 100% 29.59 in 6.0 mi Calm Calm - 0.01 in   Overcast
2:53 PM 48.9 °F - 48.0 °F 97% 29.61 in 4.0 mi Calm Calm - 0.01 in   Overcast
3:43 PM 50.0 °F - 48.2 °F 94% 29.57 in 1.8 mi West 5.8 mph - N/A   Overcast
3:53 PM 50.0 °F - 48.9 °F 96% 29.62 in 1.5 mi NW 5.8 mph - N/A   Overcast
4:53 PM 48.9 °F - 48.0 °F 97% 29.63 in 2.0 mi WNW 4.6 mph - 0.00 in   Overcast
5:53 PM 48.0 °F - 48.0 °F 100% 29.64 in 2.5 mi Calm Calm - N/A   Overcast
6:11 PM 48.2 °F - 46.4 °F 93% 29.59 in 3.0 mi West 3.5 mph - N/A   Overcast
6:48 PM 46.4 °F 44.3 °F 44.6 °F 93% 29.60 in 7.0 mi West 4.6 mph - N/A   Overcast
6:53 PM 46.0 °F 43.9 °F 45.0 °F 96% 29.66 in 6.0 mi West 4.6 mph - N/A   Overcast
7:03 PM 46.4 °F 44.3 °F 44.6 °F 93% 29.62 in 6.0 mi West 4.6 mph - N/A   Overcast
7:12 PM 46.4 °F 43.5 °F 44.6 °F 93% 29.62 in 6.0 mi West 5.8 mph - N/A   Overcast
7:27 PM 46.4 °F 43.5 °F 44.6 °F 93% 29.63 in 7.0 mi West 5.8 mph - N/A   Overcast
7:53 PM 45.0 °F 41.8 °F 44.1 °F 97% 29.69 in 8.0 mi West 5.8 mph - N/A   Overcast
8:53 PM 44.1 °F 40.1 °F 43.0 °F 96% 29.71 in 4.0 mi West 6.9 mph - N/A   Overcast
9:11 PM 42.8 °F 40.1 °F 42.8 °F 100% 29.65 in 2.0 mi WSW 4.6 mph - N/A   Overcast
9:27 PM 42.8 °F 39.3 °F 42.8 °F 100% 29.66 in 3.0 mi WSW 5.8 mph - N/A   Overcast
9:44 PM 42.8 °F 38.6 °F 42.8 °F 100% 29.66 in 2.5 mi WSW 6.9 mph - N/A   Overcast
10:05 PM 42.8 °F 40.1 °F 42.8 °F 100% 29.66 in 1.0 mi SW 4.6 mph - N/A   Overcast
10:12 PM 42.8 °F 39.3 °F 42.8 °F 100% 29.66 in 0.8 mi SW 5.8 mph - N/A   Mist
10:24 PM 42.8 °F 38.0 °F 42.8 °F 100% 29.66 in 1.5 mi SW 8.1 mph - N/A   Overcast
10:32 PM 42.8 °F 36.6 °F 42.8 °F 100% 29.66 in 3.0 mi SW 11.5 mph - N/A   Overcast
10:44 PM 42.8 °F 37.5 °F 42.8 °F 100% 29.66 in 1.8 mi WSW 9.2 mph - N/A   Overcast
10:53 PM 43.0 °F 38.2 °F 42.1 °F 97% 29.71 in 1.0 mi SW 8.1 mph - N/A   Overcast
11:03 PM 42.8 °F 38.0 °F 42.8 °F 100% 29.66 in 0.8 mi SW 8.1 mph - N/A   Mist
11:16 PM 42.8 °F 37.5 °F 42.8 °F 100% 29.66 in 1.5 mi WSW 9.2 mph - N/A   Overcast
11:27 PM 42.8 °F 37.5 °F 42.8 °F 100% 29.67 in 3.0 mi WSW 9.2 mph - N/A   Overcast
11:53 PM 43.0 °F 35.7 °F 42.1 °F 97% 29.73 in 9.0 mi WSW 15.0 mph - N/A   Overcast